Content
SEND FEEDBACK

Daily
Averages
Monthly
Summary
United States of America

CIMARRON, NEW MEXICO


Home > North America > United States > New Mexico
Elevation: 7526 feet     Latitude: 36 37N     Longitude: 105 03W

WEATHER
 
SELECT A DAY
Number of Records: 168,993;   Date Range: 10/2/07 - 8/20/14
 
SHARE

PRINT THIS DATA

[ ← Previous Day ]
WEATHER ALMANAC - JANUARY 31, 2013
[ Next Day → ]
[ °C ]   °F
Weather ElementAverageHighLow
Temperature25.3 °F35.1 °F (2:55 pm)17.6 °F (9:55 pm)
Dewpoint15.3 °F18.1 °F (4:35 pm)13.3 °F (5:15 am)
Humidity66.9 %85 % (9:55 pm)46 % (2:55 pm)
Barometer30.18 in30.26 in (6:35 pm)30.09 in (2:55 am)
Wind Speed10.9 mph26.5 mph (11:35 am)
Wind Gust32.2 mph (7:15 am)
Weather ElementAverage
Visibility9.8 mi
Wind DirectionSSW (218.5 °)

Weather ElementTotal
Precipitation---
Heating Degree Days38.7 (Base 65)
Averaged from 66 records on January 31, 2013
WEATHER CONDITIONS BREAKOUT
WIND DIRECTION BREAKOUT
WEATHER BY HOUR - JANUARY 31, 2013
[ °C ]   °F
Local TimeTemperatureDewpointHumidityBarometerVisibilityWind DirectionWind SpeedGust SpeedPrecipitationEventsConditions
12:35 AM22.1 °F15.3 °F75 %30.11 in10.0 miWest (280°)17.3 mph21.9 mphMostly Cloudy
12:55 AM22.1 °F15.8 °F77 %30.11 in10.0 miWNW (290°)15.0 mph24.2 mphOvercast
1:15 AM21.9 °F15.8 °F77 %30.11 in10.0 miWest (280°)15.0 mph21.9 mphOvercast
1:35 AM21.7 °F15.4 °F77 %30.10 in10.0 miWest (260°)10.4 mph19.6 mphMostly Cloudy
1:55 AM21.9 °F15.6 °F77 %30.11 in10.0 miWest (260°)8.1 mphMostly Cloudy
2:15 AM21.2 °F15.1 °F77 %30.11 in10.0 miWest (260°)9.2 mph17.3 mphSnowLight Snow
2:35 AM21.0 °F14.7 °F77 %30.10 in10.0 miWest (260°)12.7 mph16.1 mphScattered Clouds
2:55 AM21.2 °F14.5 °F75 %30.09 in10.0 miWest (260°)17.3 mph24.2 mphClear
3:15 AM21.0 °F14.4 °F75 %30.09 in10.0 miWest (270°)18.4 mph21.9 mphClear
3:35 AM20.8 °F14.7 °F77 %30.09 in7.0 miWest (270°)21.9 mph29.9 mphSnowLight Snow
3:55 AM21.0 °F14.2 °F75 %30.10 in10.0 miWest (280°)18.4 mphClear
4:15 AM21.6 °F14.4 °F74 %30.11 in7.0 miWest (270°)15.0 mph28.8 mphSnowLight Snow
4:35 AM21.2 °F14.5 °F75 %30.12 in7.0 miWest (280°)9.2 mph20.7 mphSnowLight Snow
4:55 AM21.7 °F14.2 °F73 %30.11 in10.0 miCalmSnowLight Snow
5:15 AM20.8 °F13.3 °F73 %30.11 in10.0 miSE (140°)3.5 mphMostly Cloudy
5:55 AM20.5 °F13.5 °F74 %30.12 in10.0 miSE (140°)4.6 mphMostly Cloudy
6:15 AM21.6 °F13.8 °F72 %30.12 in10.0 miSW (230°)11.5 mph17.3 mphMostly Cloudy
6:35 AM21.7 °F14.7 °F74 %30.14 in10.0 miWSW (240°)3.5 mphMostly Cloudy
6:55 AM22.3 °F13.8 °F70 %30.16 in10.0 miWest (280°)6.9 mphScattered Clouds
7:15 AM21.7 °F13.8 °F72 %30.14 in7.0 miWest (260°)21.9 mph32.2 mphClear
7:35 AM21.0 °F14.0 °F74 %30.16 in10.0 miWSW (250°)15.0 mphClear
7:55 AM21.2 °F14.4 °F75 %30.15 in10.0 miWSW (250°)20.7 mph26.5 mphClear
8:15 AM22.1 °F14.5 °F73 %30.16 in10.0 miWest (270°)16.1 mph31.1 mphClear
8:35 AM23.7 °F14.0 °F66 %30.18 in10.0 miSE (140°)6.9 mph17.3 mphClear
8:55 AM23.9 °F14.0 °F66 %30.19 in10.0 miWSW (250°)9.2 mphClear
9:15 AM25.2 °F14.0 °F63 %30.20 in10.0 miSSW (210°)8.1 mphClear
9:35 AM26.1 °F15.4 °F64 %30.20 in10.0 miSouth (180°)5.8 mphClear
9:55 AM26.6 °F14.9 °F61 %30.21 in10.0 miWSW (240°)10.4 mph17.3 mphClear
10:15 AM27.3 °F15.6 °F61 %30.21 in10.0 miWest (260°)8.1 mphClear
10:35 AM27.9 °F15.3 °F59 %30.20 in10.0 miWSW (240°)8.1 mph17.3 mphClear
10:55 AM28.4 °F16.0 °F60 %30.21 in10.0 miWSW (250°)16.1 mph23.0 mphClear
11:15 AM29.3 °F15.6 °F57 %30.20 in10.0 miWest (260°)19.6 mph23.0 mphClear
11:35 AM29.8 °F16.3 °F57 %30.20 in10.0 miWest (260°)26.5 mphClear
11:55 AM30.0 °F17.2 °F59 %30.20 in10.0 miWest (260°)21.9 mph26.5 mphClear
12:15 PM30.2 °F17.8 °F60 %30.20 in10.0 miWest (260°)20.7 mph25.3 mphClear
12:35 PM30.4 °F18.0 °F60 %30.19 in10.0 miWest (260°)21.9 mph28.8 mphClear
12:55 PM31.1 °F15.8 °F53 %30.19 in10.0 miWest (260°)21.9 mph26.5 mphClear
1:15 PM31.8 °F14.0 °F48 %30.18 in10.0 miWest (270°)16.1 mph27.6 mphClear
1:35 PM32.0 °F15.4 °F51 %30.18 in10.0 miWest (260°)12.7 mphClear
1:55 PM32.9 °F15.8 °F49 %30.18 in10.0 miWest (260°)10.4 mphClear
2:15 PM33.3 °F17.1 °F51 %30.18 in10.0 miCalmClear
2:35 PM33.8 °F17.6 °F52 %30.18 in10.0 miWest (270°)4.6 mphClear
2:55 PM35.1 °F16.2 °F46 %30.18 in10.0 miCalmClear
3:15 PM34.5 °F17.8 °F50 %30.19 in10.0 miWest (260°)9.2 mphClear
3:35 PM33.8 °F17.8 °F52 %30.20 in10.0 miWest (260°)15.0 mph20.7 mphClear
3:55 PM32.9 °F16.5 °F51 %30.20 in10.0 miWest (260°)17.3 mphClear
4:15 PM32.2 °F17.8 °F55 %30.22 in10.0 miWest (260°)15.0 mph24.2 mphClear
4:35 PM32.0 °F18.1 °F57 %30.22 in10.0 miWest (260°)16.1 mphClear
4:55 PM31.3 °F18.0 °F58 %30.23 in10.0 miWSW (250°)12.7 mph20.7 mphClear
5:15 PM30.0 °F17.6 °F60 %30.23 in10.0 miWest (260°)9.2 mphClear
5:35 PM28.8 °F17.1 °F62 %30.24 in10.0 miWest (270°)5.8 mphClear
5:55 PM27.9 °F16.9 °F63 %30.25 in10.0 miSouth (180°)3.5 mphClear
6:15 PM25.9 °F16.5 °F68 %30.25 in10.0 miSouth (190°)4.6 mphClear
6:35 PM24.1 °F15.6 °F70 %30.26 in10.0 miSSE (150°)4.6 mphClear
7:15 PM25.5 °F15.6 °F66 %30.25 in10.0 miSouth (170°)5.8 mphClear
7:35 PM24.6 °F15.4 °F68 %30.25 in10.0 miSE (140°)5.8 mphClear
8:15 PM18.9 °F13.3 °F79 %30.25 in10.0 miWest (270°)4.6 mphClear
8:35 PM19.8 °F13.5 °F77 %30.24 in10.0 miSouth (190°)3.5 mphClear
9:15 PM18.1 °F13.3 °F81 %30.23 in10.0 miSSE (160°)3.5 mphClear
9:35 PM19.2 °F14.2 °F81 %30.23 in10.0 miSouth (170°)5.8 mphClear
9:55 PM17.6 °F13.8 °F85 %30.23 in10.0 miCalmClear
10:15 PM21.2 °F14.4 °F75 %30.23 in10.0 miSSE (150°)5.8 mphClear
10:35 PM19.8 °F14.2 °F79 %30.23 in10.0 miSSE (160°)8.1 mphClear
10:55 PM21.9 °F14.7 °F74 %30.23 in10.0 miSSE (150°)6.9 mphClear
11:15 PM23.9 °F15.8 °F71 %30.23 in10.0 miSE (130°)6.9 mphClear
11:55 PM22.6 °F14.4 °F71 %30.23 in10.0 miSSE (160°)8.1 mphClear
Hourly data recorded from KAXX, located miles away from Cimarron, New Mexico







STORIES FROM OUR PARTNERS